Skip Page Navigation
NASA JPL Caltech
NASA Logo - Jet Propulsion Laboratory + View the NASA Portal
+ Center for Near-Earth Object Studies
JPL Home Earth Solar System Stars & Galaxies Technology
JPL Solar System Dynamics
BODIES ORBITS EPHEMERIDES TOOLS PHYSICAL DATA DISCOVERY FAQ SITE MAP
JPL Small-Body Database Browser
Search: [ help ]  
37073 (2000 UH53)
Classification: Main-belt Asteroid          SPK-ID: 2037073
Ephemeris | Orbit Diagram | Orbital Elements | Mission Design | Physical Parameters | Discovery Circumstances | Close-Approach Data ]

[ show orbit diagram ]
Orbital Elements at Epoch 2459000.5 (2020-May-31.0) TDB
Reference: JPL 24 (heliocentric ecliptic J2000)
 Element Value Uncertainty (1-sigma)   Units 
e .04871964403281356 3.882e-08  
a 2.934196337681167 1.7214e-08 au
q 2.791243336586956 1.1135e-07 au
i 1.015175291818569 4.2522e-06 deg
node 325.4383949607792 0.00020787 deg
peri 196.46961049 0.00021169 deg
M 214.1658341243538 4.1381e-05 deg
tp 2459744.184900973171
(2022-Jun-13.68490097)
0.00021353 TDB
period 1835.828817909746
5.03
1.6156e-05
4.423e-08
d
yr
n .1960967147306751 1.7257e-09 deg/d
Q 3.077149338775379 1.8053e-08 au
  Orbit Determination Parameters
   # obs. used (total)      966  
   data-arc span      10140 days (27.76 yr)  
   first obs. used      1992-03-02  
   last obs. used      2019-12-06  
   planetary ephem.      DE431  
   SB-pert. ephem.      SB431-N16  
   condition code      0  
   norm. resid. RMS      .56702  
   source      ORB  
   producer      Otto Matic  
   solution date      2019-Dec-14 02:58:03  

Additional Information
 Earth MOID = 1.79901 au 
 Jupiter MOID = 1.89513 au 
 T_jup = 3.273 
[ hide covariance matrix ]
Orbital Elements at Epoch 2456643.5 (2013-Dec-17.0) TDB
Reference: JPL 24 (heliocentric ecliptic J2000)
 Element Value Uncertainty (1-sigma)   Units 
e .04587237375450513 3.9091e-08  
q 2.802004923692775 1.1176e-07 au
tp 2456074.860178334337
(2012-May-27.36017833)
0.00021467 TDB
node 325.8004539388713 0.00020759 deg
peri 197.22351875016 0.00021183 deg
i 1.015959521274305 4.2523e-06 deg
  Orbit Determination Parameters
   # obs. used (total)      966  
   data-arc span      10140 days (27.76 yr)  
   first obs. used      1992-03-02  
   last obs. used      2019-12-06  
   planetary ephem.      DE431  
   SB-pert. ephem.      SB431-N16  
   condition code      0  
   norm. resid. RMS      .56702  
   source      ORB  
   producer      Otto Matic  
   solution date      2019-Dec-14 02:58:03  

Additional Information
 Jupiter MOID = 1.89513 au 
 T_jup = 3.273 
Orbit Covariance (6×6)
  e q tp node peri i
e 1.528089861151119E-15 -4.323407403655512E-15 -8.961755449305825E-14 -1.584176260089906E-15 7.35709055827531E-15 9.590309238895305E-17
q -4.323407403655512E-15 1.249077436235643E-14 1.100533047099704E-12 -3.313197917215672E-15 1.655180435633983E-13 -1.576910206650031E-16
tp -8.961755449305825E-14 1.100533047099704E-12 4.608140497265777E-8 -6.391085857253123E-12 9.06625095737883E-9 1.299327560713902E-13
node -1.584176260089906E-15 -3.313197917215672E-15 -6.391085857253123E-12 4.309254242243393E-8 -4.308772789239359E-8 1.531673832707368E-11
peri 7.35709055827531E-15 1.655180435633983E-13 9.06625095737883E-9 -4.308772789239359E-8 4.487301688075328E-8 -1.527707734201229E-11
i 9.590309238895305E-17 -1.576910206650031E-16 1.299327560713902E-13 1.531673832707368E-11 -1.527707734201229E-11 1.808208681513158E-11

Ephemeris | Orbit Diagram | Orbital Elements | Mission Design | Physical Parameters | Discovery Circumstances | Close-Approach Data ]

Physical Parameter Table
Parameter Symbol Value Units Sigma Reference Notes
absolute magnitude H 14.9   n/a MPO431918  

37073 (2000 UH53)          Discovered 2000-Oct-24 by LINEAR at Socorro
Reference: 20020227/Numbers.arcLast Updated: 2004-04-19

[ show close-approach data ]
Alternate Designations
 2000 UH53 = 1994 PK40 
Ephemeris | Orbit Diagram | Orbital Elements | Mission Design | Physical Parameters | Discovery Circumstances | Close-Approach Data ]
ABOUT SSD CREDITS/AWARDS PRIVACY/COPYRIGHT GLOSSARY LINKS
FirstGov 2020-Sep-25 11:30 UT
(server date/time)  
NASA Home Page
Site Manager:   Ryan S. Park
Webmaster  Alan B. Chamberlin